AirNav   Everest Fuels
 
 997 users online  

1IN4 Robinson Airpark
Elizabeth, Indiana, USA

GOING TO ELIZABETH?


FAA INFORMATION EFFECTIVE 21 MAY 2020

Location

FAA Identifier: 1IN4
Lat/Long: 38-08-35.0000N 085-59-16.0000W
38-08.583333N 085-59.266667W
38.1430556,-85.9877778
(estimated)
Elevation: 775 ft. / 236 m (estimated)
Variation: 03W (1995)
From city: 1 mile NW of ELIZABETH, IN
Time zone: UTC -4 (UTC -5 during Standard Time)
Zip code: 47117

Airport Operations

Airport use: Private use. Permission required prior to landing
Activation date: 02/1998
Control tower: no
ARTCC: INDIANAPOLIS CENTER
FSS: TERRE HAUTE FLIGHT SERVICE STATION
Attendance: CONTINUOUS
Segmented circle: no

Airport Communications

WX ASOS at SDF (12 nm E): PHONE 502-367-1492
WX ASOS at LOU (16 nm E): PHONE 502-473-0693
WX AWOS-3 at JVY (18 nm NE): 118.575 (812-246-1278)

Nearby radio navigation aids

VOR radial/distance  VOR name  Freq  Var
FTKr358/14.2FORT KNOX VOR/DME109.6001W
MYSr040/(19.2)MYSTIC VOR108.2001W
IIUr276/19.5LOUISVILLE VORTAC114.8001E
EWOr333/34.0NEW HOPE VOR/DME110.8001E

 
NDB name  Hdg/Dist  Freq  Var  ID
GODMAN000/11.139603WGOI --. --- ..

Airport Services

Runway Information

Runway 9/27

Dimensions: 2000 x 30 ft. / 610 x 9 m
Surface: turf, in good condition
RUNWAY 9  RUNWAY 27
Traffic pattern: leftleft
Obstructions: none30 ft. trees, 500 ft. from runway

Airport Ownership and Management from official FAA records

Ownership: Privately-owned
Owner: JAMES E. ROBINSON
7300 PINE SHORE DRIVE
ELIZABETH, IN 47117
Phone 812-969-2859
Manager: JAMES E. ROBINSON
7300 PINE SHORE DRIVE
ELIZABETH, IN 47117
Phone 812-969-2859

Additional Remarks

FOR CD CTC LOUISVILLE APCH AT 502-375-7499

Instrument Procedures

There are no published instrument procedures at 1IN4.

Some nearby airports with instrument procedures:

KSDF - Louisville Muhammad Ali International Airport (12 nm E)
KFTK - Godman Army Airfield (14 nm S)
KLOU - Bowman Field Airport (16 nm E)
KJVY - Clark Regional Airport (18 nm NE)
KEKX - Addington Field Airport (28 nm S)
 
Loc | Ops | Rwys | IFR | FBO | Links
Com | Nav | Svcs | Stats | Notes
Area around 1IN4 (Robinson Airpark)
 
Road maps at: MapQuest Bing Google
 
Aerial photo
No photo
 
Sectional chart

 
Airport distance calculator
Flying to Robinson Airpark? Find the distance to fly.

From to 1IN4

Sunrise and sunset
Times for 28-May-2020
 Local
(UTC-4)
 Zulu
(UTC)
Morning civil twilight05:5409:54
Sunrise06:2510:25
Sunset20:5800:58
Evening civil twilight21:2901:29

Current date and time
Zulu (UTC)  29-May-2020 00:31:29
Local (UTC-4)  28-May-2020 20:31:29
 
METAR
KSDF 
12nm E 
282356Z 19008KT 10SM FEW055 FEW085 BKN200 BKN250 27/18 A2990 RMK AO2 SLP119 CB DSNT NW SH DSNT N T02670183 10289 20261 53004
KFTK 
16nm S 
282356Z AUTO 17007KT 10SM CLR 25/19 A2992 RMK AO2 SLP129 60000 T02500187 10276 20243 50005 $
KLOU 
16nm E 
282353Z 18008KT 10SM FEW100 27/18 A2989 RMK AO2 SLP118 T02670178 10283 20261 53001
KJVY 
18nm NE 
282155Z AUTO 00000KT 10SM SCT100 27/18 A2988 RMK AO2 T02720181
TAF
KSDF 
12nm E 
281937Z 2820/2924 20011KT P6SM BKN045 FM282100 19009KT P6SM VCTS BKN050CB FM290100 19005KT P6SM VCSH FEW040 SCT100 FM290400 19004KT P6SM BKN100 FM291400 23008KT P6SM SCT021 PROB30 2918/2922 3SM -TSRA OVC050CB
KFTK 
16nm S 
282349Z 2823/2923 18012KT 9999 SCT030 QNH2989INS TEMPO 2823/2902 8000 -TSRA BKN020CB BECMG 2913/2914 VRB06KT 8000 -SHRA BKN020 QNH2999INS BECMG 2914/2915 VRB06KT 8000 -SHRA BKN010 QNH2996INS TEMPO 2915/2916 22020G25KT -TSRA BKN010CB OVC020 BECMG 2916/2917 27010G15KT 9000 -SHRA BKN025 QNH2993INS BECMG 2922/2923 32010G15KT 9000 -SHRA BKN025 QNH2995INS TX27/2916Z TN18/2910Z
NOTAMs
Click for the latest NOTAMs
NOTAMs are issued by the DoD/FAA and will open in a separate window not controlled by AirNav.

 

 
 

Would you like to see your business listed on this page?

 If your business provides an interesting product or service to pilots, flight crews, aircraft, or users of the Robinson Airpark, you should consider listing it here.  To start the listing process, click on the button below
 
Add a business
 

Other Pages about Robinson Airpark

Update a link
 
Copyright © AirNav, LLC. All rights reserved. Privacy Policy  Contact